Calgary Springbank,

12:02 PM MST on December 17, 2017 (GMT -0700)
Calgary Springbank

Weather History for CYBW - November, 2011

Change the Weather History Date:

Wednesday, November 23, 2011

  Actual Average Record
Temperature  
Mean Temperature 34 °F -  
Max Temperature 49 °F 29 °F 55 °F (2000)
Min Temperature 18 °F 9 °F -32 °F (1996)
Degree Days  
Heating Degree Days 32    
Moisture  
Dew Point 28 °F    
Average Humidity 66    
Maximum Humidity 93    
Minimum Humidity 41    
Precipitation  
Precipitation 0.00 in - - ()
Sea Level Pressure  
Sea Level Pressure 29.36 in    
Wind  
Wind Speed 11 mph ()    
Max Wind Speed 33 mph    
Max Gust Speed 45 mph    
Visibility 13.0 miles    
Events      
Averages and records for this station are not official NWS values.
T = Trace of Precipitation, MM = Missing Value Source: Averaged Metar Reports

Daily Weather History Graph

Daily Weather History Graph

Search for Another Location

Airport or City:

Trip Planner

Search our weather history database for the weather conditions in past years. The results will help you decide how hot, cold, wet, or windy it might be!

Date:

Astronomy

Nov. 23, 2011 Rise Set
Actual Time 8:06 AM MST 4:40 PM MST
Civil Twilight 7:29 AM MST 5:17 PM MST
Nautical Twilight 6:48 AM MST 5:59 PM MST
Astronomical Twilight 6:08 AM MST 6:38 PM MST
Moon 6:11 AM MST (11/23) 3:27 PM MST (11/23)
Length of Visible Light 9h 48m
Length of Day
8h 33m
Waning Crescent, 3% of the Moon is Illuminated
Nov 23
Waning Crescent
Nov 24
New
Dec 2
First Quarter
Dec 10
Full
Dec 17
Last Quarter

Hourly Weather History & Observations

Time (MST) Temp. Windchill Dew Point Humidity Pressure Visibility Wind Dir Wind Speed Gust Speed Precip Events Conditions
5:00 AM 23.0 °F 17.0 °F 21.2 °F 93% 29.47 in 15.0 mi NW 4.6 mph - N/A   Mostly Cloudy
5:31 AM - - - N/A% - 7.0 mi WNW 3.5 mph - N/A   Overcast
6:00 AM 24.8 °F 20.5 °F 23.0 °F 93% 29.42 in 3.0 mi NNW 3.5 mph - N/A   Overcast
6:51 AM - - - N/A% - 12.0 mi North 3.5 mph - N/A   Mostly Cloudy
7:00 AM 23.0 °F - 21.2 °F 93% 29.40 in 12.0 mi West 2.3 mph - N/A   Overcast
8:00 AM 24.8 °F 20.5 °F 23.0 °F 93% 29.37 in 10.0 mi NNE 3.5 mph - N/A   Partly Cloudy
8:19 AM - - - N/A% - 10.0 mi Calm Calm - N/A   Partly Cloudy
9:00 AM 33.8 °F 30.8 °F 26.6 °F 75% 29.34 in 12.0 mi SW 3.5 mph - N/A   Mostly Cloudy
10:00 AM 46.4 °F 37.7 °F 32.0 °F 57% 29.33 in 15.0 mi SW 26.5 mph 38.0 mph N/A   Mostly Cloudy
11:00 AM 47 °F - 31 °F 41% 29.26 in 25 mi WSW 33.4 mph - -   Overcast
11:00 AM 46.4 °F 36.9 °F 30.2 °F 53% 29.26 in 20.0 mi WSW 32.2 mph 43.7 mph N/A   Overcast
12:00 PM 48.2 °F - 30.2 °F 50% 29.27 in 25.0 mi WSW 33.4 mph 44.9 mph N/A   Mostly Cloudy
1:00 PM 48.2 °F - 30.2 °F 50% 29.28 in 25.0 mi WSW 9.2 mph 42.6 mph N/A   Mostly Cloudy
2:00 PM 48.2 °F - 28.4 °F 46% 29.30 in 25.0 mi WSW 31.1 mph 40.3 mph N/A   Mostly Cloudy
3:00 PM 48.2 °F - 28.4 °F 46% 29.31 in 25.0 mi WSW 29.9 mph 38.0 mph N/A   Mostly Cloudy
5:00 PM 42 °F - 29 °F 48% 29.37 in 15 mi SW 20.7 mph - -   Scattered Clouds
5:00 PM 42.8 °F 34.3 °F 28.4 °F 57% 29.37 in 15.0 mi SW 19.6 mph 27.6 mph N/A   Mostly Cloudy
6:00 PM 41.0 °F 31.9 °F 30.2 °F 65% 29.39 in 15.0 mi SW 19.6 mph - N/A   Mostly Cloudy
7:00 PM 41.0 °F 31.1 °F 30.2 °F 65% 29.39 in 15.0 mi SW 23.0 mph 29.9 mph N/A   Overcast
8:00 PM 39.2 °F 29.6 °F 30.2 °F 70% 29.40 in 15.0 mi SW 19.6 mph - N/A   Overcast
9:00 PM 35.6 °F 28.0 °F 26.6 °F 70% 29.43 in 15.0 mi NNE 10.4 mph - N/A   Scattered Clouds
10:00 PM 32.0 °F 24.2 °F 26.6 °F 80% 29.47 in 15.0 mi North 9.2 mph 17.3 mph N/A   Overcast